FW7263 Weather Reports


time (UTC)temp
C
wind
direction
speed
KPH
gust
KPH
rain 1hr
cm
rain 24hr
cm
rain mn
cm
humidity
%
barometer
mb
20260506192640 20 193 1.6 11.3 0.00 0.13 0.13 82 1007.8
20260506192136 19 191 3.2 4.8 0.00 0.13 0.13 84 1008.0
20260506191633 19 201 4.8 8.0 0.00 0.13 0.13 85 1007.8
20260506191129 19 202 1.6 3.2 0.00 0.13 0.13 86 1008.1
20260506190627 18 189 1.6 4.8 0.00 0.13 0.13 88 1008.0
20260506190123 18 121 4.8 9.7 0.00 0.13 0.13 91 1007.8
20260506185621 17 154 4.8 9.7 0.00 0.13 0.13 93 1008.0
20260506185117 17 179 4.8 9.7 0.00 0.13 0.13 93 1008.2
20260506184614 17 188 0.0 4.8 0.00 0.13 0.13 94 1008.3
20260506184111 17 164 3.2 4.8 0.00 0.13 0.13 94 1008.5
20260506183608 17 162 1.6 4.8 0.00 0.13 0.13 95 1008.4
20260506183104 17 160 4.8 4.8 0.00 0.13 0.13 95 1008.4
20260506182602 17 198 3.2 4.8 0.00 0.13 0.13 96 1008.5
20260506182058 17 101 1.6 11.3 0.00 0.13 0.13 96 1008.6
20260506181556 17 155 4.8 11.3 0.18 0.13 0.13 96 1008.5
20260506181053 17 193 1.6 16.1 0.30 0.13 0.13 96 1008.7
20260506180550 17 225 4.8 8.0 0.13 0.10 0.10 95 1008.6
20260506180046 17 184 3.2 9.7 0.18 0.08 0.08 94 1009.1
20260506175543 17 195 1.6 8.0 0.18 0.08 0.08 93 1008.9
20260506175039 17 223 9.7 14.5 0.13 0.05 0.05 92 1008.7
20260506174538 18 191 8.0 16.1 0.30 0.05 0.05 89 1008.9
20260506174033 19 140 1.6 8.0 0.00 0.00 0.00 83 1009.0
20260506173532 20 183 4.8 8.0 0.00 0.00 0.00 80 1008.7
20260506173028 21 283 8.0 11.3 0.00 0.00 0.00 73 1008.8
20260506172526 21 166 0.0 4.8 0.00 0.00 0.00 73 1008.9
20260506172022 21 220 8.0 11.3 0.00 0.00 0.00 71 1008.8
20260506171519 21 200 1.6 3.2 0.00 0.00 0.00 71 1008.9
20260506171017 21 70 1.6 3.2 0.00 0.00 0.00 72 1008.8
20260506170515 22 167 14.5 24.1 0.00 0.00 0.00 69 1009.0
20260506170012 22 194 3.2 4.8 0.00 0.00 0.00 69 1008.7
20260506165510 22 169 3.2 3.2 0.00 0.00 0.00 66 1008.8
20260506165005 22 196 3.2 16.1 0.00 0.00 0.00 66 1008.9
20260506164502 22 195 4.8 12.9 0.00 0.00 0.00 65 1009.0
20260506164000 22 197 9.7 12.9 0.00 0.00 0.00 65 1009.1
20260506163455 22 192 3.2 9.7 0.00 0.00 0.00 66 1009.6
20260506162950 22 188 3.2 3.2 0.00 0.00 0.00 65 1009.4
20260506162448 22 196 1.6 4.8 0.00 0.00 0.00 66 1009.8
20260506161945 22 195 1.6 9.7 0.00 0.00 0.00 66 1009.5
20260506161443 22 171 3.2 22.5 0.00 0.00 0.00 66 1010.1
20260506160940 22 152 6.4 20.9 0.00 0.00 0.00 65 1010.0
20260506160438 22 214 4.8 11.3 0.00 0.00 0.00 65 1010.0
20260506155935 22 150 1.6 3.2 0.00 0.00 0.00 66 1009.9
20260506155433 22 194 3.2 4.8 0.00 0.00 0.00 67 1009.9
20260506153559 22 194 4.8 4.8 0.00 0.00 0.00 66 1009.9
20260506153057 22 264 6.4 11.3 0.00 0.00 0.00 65 1010.2
20260506152553 22 202 6.4 12.9 0.00 0.00 0.00 65 1010.3
20260506152052 22 229 3.2 3.2 0.00 0.00 0.00 65 1010.2
20260506151549 22 240 8.0 17.7 0.00 0.00 0.00 64 1010.2
20260506151046 22 153 8.0 12.9 0.00 0.00 0.00 64 1010.3
20260506150542 22 195 6.4 9.7 0.00 0.00 0.00 64 1010.1
20260506150040 22 214 3.2 12.9 0.00 0.00 0.00 65 1010.1
20260506145536 22 261 14.5 16.1 0.00 0.00 0.00 63 1010.2
20260506145034 22 176 4.8 14.5 0.00 0.00 0.00 64 1010.5
20260506144530 22 79 6.4 11.3 0.00 0.00 0.00 64 1010.2
20260506144028 22 170 3.2 12.9 0.00 0.00 0.00 65 1010.4
20260506143525 22 161 8.0 12.9 0.00 0.00 0.00 65 1010.1
20260506143024 21 200 1.6 8.0 0.00 0.00 0.00 66 1010.3
20260506142521 21 175 6.4 16.1 0.00 0.00 0.00 65 1010.5
20260506142019 22 155 4.8 11.3 0.00 0.00 0.00 65 1010.5
20260506141517 22 185 8.0 11.3 0.00 0.00 0.00 66 1010.8
20260506141015 22 186 3.2 8.0 0.00 0.00 0.00 64 1010.5
20260506140512 22 69 4.8 8.0 0.00 0.00 0.00 65 1010.5
20260506140009 21 202 3.2 8.0 0.00 0.00 0.00 66 1010.6
20260506135506 21 181 3.2 9.7 0.00 0.00 0.00 66 1010.6
20260506135002 21 214 8.0 11.3 0.00 0.00 0.00 66 1010.3
20260506134458 20 185 3.2 14.5 0.00 0.00 0.00 68 1010.5
20260506133954 20 204 3.2 8.0 0.00 0.00 0.00 68 1010.5
20260506133411 21 125 4.8 14.5 0.00 0.00 0.00 66 1010.6
20260506132908 21 125 4.8 14.5 0.00 0.00 0.00 66 1010.6
20260506132405 21 179 1.6 1.6 0.00 0.00 0.00 66 1010.6
20260506131903 21 184 1.6 9.7 0.00 0.00 0.00 67 1010.8
20260506131359 21 186 3.2 8.0 0.00 0.00 0.00 67 1010.9
20260506130856 21 165 3.2 4.8 0.00 0.00 0.00 67 1011.1
20260506130352 21 251 14.5 17.7 0.00 0.00 0.00 65 1010.8
20260506125851 21 196 4.8 9.7 0.00 0.00 0.00 65 1010.8
20260506125349 21 140 6.4 8.0 0.00 0.00 0.00 67 1010.8
20260506124847 21 221 1.6 3.2 0.00 0.00 0.00 68 1010.8
20260506124343 21 220 8.0 11.3 0.00 0.00 0.00 69 1010.9
20260506123841 21 185 3.2 4.8 0.00 0.00 0.00 68 1010.8
20260506123339 21 175 6.4 9.7 0.00 0.00 0.00 69 1011.0
20260506122836 20 186 1.6 1.6 0.00 0.00 0.00 70 1010.9
20260506122333 20 199 6.4 20.9 0.00 0.00 0.00 70 1010.8
20260506121831 20 128 1.6 9.7 0.00 0.00 0.00 71 1011.1
20260506121328 19 186 8.0 11.3 0.00 0.00 0.00 73 1011.0
20260506120825 19 187 1.6 3.2 0.00 0.00 0.00 74 1010.9
20260506120323 20 195 1.6 1.6 0.00 0.00 0.00 73 1010.9
20260506115820 19 132 4.8 8.0 0.00 0.00 0.00 74 1010.8
20260506115318 18 179 1.6 3.2 0.00 0.00 0.00 78 1011.0
20260506114816 18 179 1.6 3.2 0.00 0.00 0.00 78 1010.8
20260506114314 18 205 3.2 9.7 0.00 0.00 0.00 78 1010.7
20260506113812 17 184 8.0 9.7 0.00 0.00 0.00 79 1010.8
20260506113309 17 168 3.2 3.2 0.00 0.00 0.00 81 1011.2
20260506112805 17 175 1.6 4.8 0.00 0.00 0.00 82 1011.0
20260506112305 17 192 1.6 3.2 0.00 0.00 0.00 83 1010.9
20260506111800 16 172 1.6 8.0 0.00 0.00 0.00 83 1010.9
20260506111258 16 193 1.6 4.8 0.00 0.00 0.00 84 1011.0
20260506110755 16 202 1.6 3.2 0.00 0.00 0.00 85 1011.0
20260506110252 16 208 3.2 3.2 0.00 0.00 0.00 85 1010.9
20260506105749 16 212 4.8 4.8 0.00 0.00 0.00 85 1011.0
20260506105246 16 159 1.6 3.2 0.00 0.00 0.00 86 1010.8
20260506104743 16 189 0.0 1.6 0.00 0.00 0.00 86 1010.8
20260506104241 15 181 1.6 1.6 0.00 0.00 0.00 86 1010.7
20260506103738 15 179 1.6 1.6 0.00 0.00 0.00 87 1011.0
20260506103235 15 152 4.8 8.0 0.00 0.00 0.00 87 1010.8
20260506102733 15 176 1.6 1.6 0.00 0.00 0.00 88 1010.6
20260506102231 15 187 0.0 0.0 0.00 0.00 0.00 88 1010.6
20260506101727 15 202 4.8 4.8 0.00 0.00 0.00 88 1010.7
20260506101224 15 177 4.8 4.8 0.00 0.00 0.00 88 1010.7
20260506100722 15 173 4.8 8.0 0.00 0.00 0.00 89 1010.5
20260506100220 15 191 0.0 0.0 0.00 0.00 0.00 89 1010.5
20260506095718 15 187 1.6 3.2 0.00 0.00 0.00 89 1010.9
20260506095215 15 204 1.6 3.2 0.00 0.00 0.00 89 1010.5
20260506094712 15 184 1.6 4.8 0.00 0.00 0.00 90 1010.4
20260506094210 15 192 0.0 1.6 0.00 0.00 0.00 89 1010.6
20260506093708 15 185 1.6 4.8 0.00 0.00 0.00 89 1010.6
20260506093205 15 182 0.0 3.2 0.00 0.00 0.00 90 1010.7
20260506092702 15 191 1.6 3.2 0.00 0.00 0.00 90 1010.7
20260506092200 15 177 1.6 3.2 0.00 0.00 0.00 90 1010.8
20260506091658 15 197 0.0 3.2 0.00 0.00 0.00 90 1010.9
20260506091155 15 184 0.0 4.8 0.00 0.00 0.00 90 1010.5
20260506090653 15 182 3.2 4.8 0.00 0.00 0.00 89 1010.8
20260506090149 15 185 1.6 1.6 0.00 0.00 0.00 89 1010.6
20260506085646 15 157 3.2 4.8 0.00 0.00 0.00 90 1010.9
20260506085142 15 192 0.0 1.6 0.00 0.00 0.00 89 1010.7
20260506084639 15 191 0.0 3.2 0.00 0.00 0.00 90 1010.9
20260506084136 15 186 1.6 3.2 0.00 0.00 0.00 90 1011.0
20260506083632 15 183 1.6 3.2 0.00 0.00 0.00 90 1011.3
20260506083130 15 172 1.6 1.6 0.00 0.00 0.00 89 1011.1
20260506082627 15 177 3.2 4.8 0.00 0.00 0.00 90 1011.1
20260506082122 15 176 1.6 3.2 0.00 0.00 0.00 90 1011.0
20260506081621 15 194 1.6 1.6 0.00 0.00 0.00 90 1011.0
20260506081118 15 191 3.2 4.8 0.00 0.00 0.00 90 1011.0
20260506080616 15 190 0.0 3.2 0.00 0.00 0.00 90 1011.1
20260506080112 15 183 1.6 3.2 0.00 0.00 0.00 90 1010.8
20260506073056 15 169 0.0 1.6 0.00 0.00 0.00 89 1011.1
20260506072552 15 189 1.6 3.2 0.00 0.00 0.00 89 1011.2
20260506072051 15 184 0.0 0.0 0.00 0.00 0.00 89 1011.0
20260506071548 16 186 0.0 0.0 0.00 0.00 0.00 88 1011.1
20260506071045 16 184 0.0 1.6 0.00 0.00 0.00 88 1011.4
20260506070542 16 188 1.6 3.2 0.00 0.00 0.00 88 1011.4
20260506062016 16 185 0.0 1.6 0.00 0.00 0.00 85 1011.3
20260506061512 17 185 1.6 3.2 0.00 0.00 0.00 84 1011.3
20260506061010 17 165 3.2 3.2 0.00 0.00 0.00 84 1011.5
20260506060508 17 182 1.6 1.6 0.00 0.00 0.00 84 1011.1
20260506050937 17 181 1.6 3.2 0.00 0.00 0.00 83 1011.7
20260506050435 17 160 3.2 4.8 0.00 0.00 0.00 83 1011.5
20260506044925 17 267 4.8 12.9 0.00 0.00 0.00 83 1011.7
20260506044424 17 172 0.0 1.6 0.00 0.00 0.00 83 1011.7
20260506043920 17 194 0.0 1.6 0.00 0.00 0.00 83 1011.8
20260506043417 17 182 3.2 4.8 0.00 0.00 0.00 83 1011.7
20260506042915 17 175 1.6 1.6 0.00 0.00 0.00 82 1011.7
20260506042414 17 175 1.6 1.6 0.00 0.00 0.00 82 1011.7
20260506041912 17 181 1.6 1.6 0.00 0.00 0.00 81 1011.6
20260506041409 17 181 1.6 1.6 0.00 0.00 0.00 81 1011.7
20260506040906 17 188 0.0 1.6 0.00 0.00 0.00 81 1011.8
20260506040404 17 188 1.6 1.6 0.00 0.00 0.00 81 1011.7
20260506035859 17 95 4.8 11.3 0.00 0.00 0.00 81 1011.6
20260506035357 17 186 1.6 1.6 0.00 0.00 0.00 80 1011.6
20260506034854 18 166 1.6 1.6 0.00 0.00 0.00 79 1011.6
20260506034351 18 182 3.2 3.2 0.00 0.00 0.00 79 1011.6
20260506033848 18 183 3.2 8.0 0.00 0.00 0.00 78 1011.6
20260506033345 18 186 1.6 1.6 0.00 0.00 0.00 78 1011.5
20260506032842 18 183 3.2 3.2 0.00 0.00 0.00 77 1011.7
20260506032339 18 193 3.2 4.8 0.00 0.00 0.00 78 1011.7
20260506031836 18 183 3.2 3.2 0.00 0.00 0.00 77 1011.8
20260506031333 18 150 3.2 8.0 0.00 0.00 0.00 77 1011.7
20260506030831 18 193 4.8 4.8 0.00 0.00 0.00 77 1011.8
20260506030329 18 177 4.8 4.8 0.00 0.00 0.00 77 1011.8
20260506025825 18 172 1.6 3.2 0.00 0.00 0.00 77 1011.7
20260506025321 18 183 1.6 4.8 0.00 0.00 0.00 77 1011.9
20260506024819 18 168 1.6 1.6 0.00 0.00 0.00 78 1011.8
20260506024315 18 193 1.6 1.6 0.00 0.00 0.00 77 1011.9
20260506023812 18 157 1.6 1.6 0.00 0.00 0.00 76 1012.0
20260506023309 18 157 1.6 3.2 0.00 0.00 0.00 76 1011.7
20260506022805 18 195 1.6 3.2 0.00 0.00 0.00 76 1011.8
20260506022305 18 187 0.0 0.0 0.00 0.00 0.00 77 1011.8
20260506021801 18 173 1.6 1.6 0.00 0.00 0.00 76 1011.9
20260506021258 18 163 3.2 8.0 0.00 0.00 0.00 76 1011.9
20260506020754 18 189 1.6 8.0 0.00 0.00 0.00 76 1011.8
20260506020252 18 184 1.6 3.2 0.00 0.00 0.00 76 1011.9
20260506015750 18 153 1.6 3.2 0.00 0.00 0.00 76 1011.7
20260506015247 18 170 1.6 4.8 0.00 0.00 0.00 76 1011.8
20260506014744 18 170 1.6 4.8 0.00 0.00 0.00 76 1011.8
20260506014240 18 188 1.6 1.6 0.00 0.00 0.00 76 1011.7
20260506013737 18 192 1.6 11.3 0.00 0.00 0.00 76 1011.5
20260506013235 18 191 6.4 8.0 0.00 0.00 0.00 76 1011.7
20260506012731 18 189 0.0 3.2 0.00 0.00 0.00 76 1011.5
20260506012228 18 184 4.8 8.0 0.00 0.00 0.00 76 1011.5
20260506011725 18 148 4.8 4.8 0.00 0.00 0.00 75 1011.5
20260506011221 18 192 8.0 12.9 0.00 0.00 0.00 73 1011.4
20260506010720 18 192 8.0 12.9 0.00 0.00 0.00 73 1011.2
20260506010217 18 156 1.6 3.2 0.00 0.00 0.00 73 1011.2
20260506005714 18 170 0.0 3.2 0.00 0.00 0.00 73 1011.3
20260506005211 18 185 0.0 1.6 0.00 0.00 0.00 72 1011.2
20260506004706 19 181 4.8 4.8 0.00 0.00 0.00 71 1011.1
20260506004204 19 187 1.6 1.6 0.00 0.00 0.00 70 1011.1
20260506003700 19 188 6.4 11.3 0.00 0.00 0.00 69 1011.1
20260506003157 20 201 3.2 4.8 0.00 0.00 0.00 69 1011.0
20260506002652 19 138 6.4 9.7 0.00 0.00 0.00 68 1011.0
20260506002149 19 171 3.2 4.8 0.00 0.00 0.00 69 1011.0
20260506001644 20 139 3.2 4.8 0.00 0.00 0.00 68 1011.2
20260506001142 20 136 11.3 12.9 0.00 0.00 0.00 67 1010.9
20260506000639 20 136 11.3 12.9 0.00 0.00 0.00 67 1010.9
20260506000136 20 141 4.8 8.0 0.00 0.00 0.00 66 1010.9
20260505235634 20 141 4.8 8.0 0.00 0.00 0.00 66 1010.9
20260505235131 20 184 0.0 3.2 0.00 0.00 0.00 66 1010.9
20260505234628 20 195 1.6 1.6 0.00 0.00 0.00 65 1010.9
20260505234125 21 187 3.2 4.8 0.00 0.00 0.00 63 1010.6
20260505233622 21 178 3.2 3.2 0.00 0.00 0.00 63 1010.7
20260505233120 21 219 4.8 4.8 0.00 0.00 0.00 62 1010.8
20260505232617 21 63 4.8 4.8 0.00 0.00 0.00 62 1010.4
20260505232115 21 180 1.6 3.2 0.00 0.00 0.00 61 1010.6
20260505231611 21 113 4.8 4.8 0.00 0.00 0.00 61 1010.5
20260505231110 22 194 0.0 1.6 0.00 0.00 0.00 61 1010.5
20260505230608 22 202 6.4 9.7 0.00 0.00 0.00 60 1010.4
20260505225600 22 194 3.2 4.8 0.00 0.00 0.00 60 1010.3
20260505225056 22 190 0.0 4.8 0.00 0.00 0.00 60 1010.3
20260505224553 22 187 0.0 4.8 0.00 0.00 0.00 59 1010.5
20260505224051 22 173 4.8 4.8 0.00 0.00 0.00 59 1010.4
20260505223548 23 162 6.4 8.0 0.00 0.00 0.00 57 1010.3
20260505223044 23 76 1.6 9.7 0.00 0.00 0.00 56 1010.0
20260505222540 23 177 3.2 4.8 0.00 0.00 0.00 55 1010.2
20260505222037 23 200 1.6 8.0 0.00 0.00 0.00 54 1010.3
20260505221534 23 188 3.2 4.8 0.00 0.00 0.00 55 1010.2
20260505221030 24 163 4.8 9.7 0.00 0.00 0.00 55 1010.2
20260505220527 24 293 9.7 11.3 0.00 0.00 0.00 54 1010.2
20260505220025 24 120 1.6 3.2 0.00 0.00 0.00 54 1010.0
20260505215523 24 165 3.2 12.9 0.00 0.00 0.00 54 1009.9
20260505215021 25 154 1.6 8.0 0.00 0.00 0.00 53 1009.9
20260505214519 25 195 6.4 12.9 0.00 0.00 0.00 52 1009.7
20260505214015 26 153 6.4 11.3 0.00 0.00 0.00 50 1009.8
20260505213513 26 175 9.7 12.9 0.00 0.00 0.00 48 1009.4
20260505213009 25 186 3.2 11.3 0.00 0.00 0.00 51 1009.6
20260505212506 25 171 3.2 3.2 0.00 0.00 0.00 51 1009.4
20260505212003 26 67 3.2 14.5 0.00 0.00 0.00 50 1009.2
20260505211500 25 167 3.2 12.9 0.00 0.00 0.00 51 1009.4
20260505210956 25 179 8.0 11.3 0.00 0.00 0.00 50 1009.4
20260505210453 26 185 3.2 8.0 0.00 0.00 0.00 50 1009.4
20260505205950 25 174 6.4 11.3 0.00 0.00 0.00 50 1009.3
20260505205449 26 197 4.8 11.3 0.00 0.00 0.00 50 1009.4
20260505204945 26 197 4.8 11.3 0.00 0.00 0.00 50 1009.4
20260505204443 26 89 6.4 12.9 0.00 0.00 0.00 48 1009.2
20260505203940 27 81 8.0 12.9 0.00 0.00 0.00 46 1009.3
20260505203436 27 179 3.2 8.0 0.00 0.00 0.00 47 1009.2
20260505202933 27 164 4.8 8.0 0.00 0.00 0.00 46 1009.3
20260505202429 27 191 4.8 9.7 0.00 0.00 0.00 48 1009.2
20260505201926 27 174 4.8 9.7 0.00 0.00 0.00 48 1009.2
20260505201423 27 197 3.2 16.1 0.00 0.00 0.00 49 1009.3
20260505200921 27 113 9.7 14.5 0.00 0.00 0.00 46 1009.6
20260505200418 28 167 3.2 9.7 0.00 0.00 0.00 44 1009.4
20260505195913 30 190 1.6 11.3 0.00 0.00 0.00 45 1009.2
20260505195411 29 195 3.2 11.3 0.00 0.00 0.00 38 1009.1
20260505194908 29 187 4.8 17.7 0.00 0.00 0.00 38 1009.2
20260505194406 29 175 1.6 12.9 0.00 0.00 0.00 40 1009.4
20260505193905 28 174 4.8 11.3 0.00 0.00 0.00 38 1009.6
20260505193404 28 153 4.8 16.1 0.00 0.00 0.00 38 1009.7